Wind_Speed
11 10 10 10 10 9 6 5 4 3 2 2 3 3 4 4 4 4 4 4 4 4 4 4 3 4 4 3 3 4 4 5 6 7 7 7 6 5 5 5 5 5 6 6 5 4 4 3 4
11 10 10 11 10 8 6 4 5 4 3 3 3 3 3 4 4 4 5 5 5 4 5 5 5 5 5 4 4 4 5 5 5 6 6 6 5 5 5 5 4 5 5 4 5 4 4 3 3
11 11 11 12 8 6 6 5 5 5 3 3 3 3 3 4 4 4 5 5 6 6 6 5 5 5 5 5 5 5 5 5 5 5 6 6 5 5 4 4 4 4 4 3 4 4 3 3 2
11 12 12 10 7 7 6 5 5 5 4 3 3 3 4 4 4 4 5 5 5 5 5 6 5 5 5 5 5 5 5 5 5 5 5 5 4 4 3 3 3 3 3 3 3 3 3 3 2
12 14 12 8 7 6 6 5 5 5 4 4 4 4 4 5 5 5 5 5 5 5 4 5 5 4 4 4 4 4 4 4 4 4 4 5 5 4 3 3 3 3 2 3 3 4 4 3 2
13 15 11 9 7 6 5 5 5 5 4 4 4 4 4 5 5 6 5 5 5 5 5 5 5 4 4 4 3 2 3 3 3 3 3 3 3 3 3 2 1 2 2 2 3 4 4 3 2
12 12 9 8 8 7 6 5 4 3 4 4 5 5 5 6 7 7 6 5 5 5 5 5 5 5 4 4 4 4 3 2 2 2 2 3 3 2 2 1 1 1 1 1 2 3 3 3 3
12 11 8 7 8 7 7 7 6 5 4 4 5 5 5 6 7 7 6 5 5 5 5 5 5 5 5 4 4 4 4 3 3 2 2 2 2 2 1 1 1 1 0 0 1 2 3 3 3
11 10 8 6 7 8 7 7 7 6 4 5 5 6 6 6 7 8 7 6 6 6 6 6 5 6 6 5 5 5 4 3 3 2 1 1 1 1 1 1 1 2 1 1 1 2 3 3 4
9 8 7 7 7 7 7 7 7 6 5 5 6 6 7 7 8 8 8 7 7 7 7 6 6 6 6 6 5 5 5 4 3 3 2 1 1 1 1 1 1 2 2 2 2 3 3 4 4
7 7 7 7 7 7 7 7 8 7 8 7 7 7 8 8 9 9 8 8 7 7 7 7 6 5 5 5 5 5 5 5 4 3 2 2 1 1 2 2 2 2 3 2 2 2 3 4 5
5 6 6 6 6 7 8 8 8 8 8 8 7 8 8 8 8 9 8 8 7 7 7 7 7 7 5 5 6 6 6 5 4 3 3 2 2 2 2 3 3 3 4 4 4 3 3 3 4
5 4 4 5 5 6 7 8 8 8 8 8 8 8 8 9 9 9 8 8 8 8 7 7 8 8 6 6 6 6 6 5 5 4 4 3 4 4 3 3 4 4 5 5 5 5 6 5 5
4 3 3 4 4 5 6 7 7 8 8 8 8 8 9 9 9 8 8 8 8 8 8 8 8 7 7 8 7 7 6 6 5 5 6 5 4 5 5 5 5 5 6 6 6 6 6 6 5
3 3 4 5 6 6 6 7 7 6 8 8 9 9 9 9 8 8 8 8 8 8 8 8 8 8 8 8 7 7 7 6 6 6 6 6 6 6 6 6 6 6 7 7 7 7 7 6 6
3 2 4 5 6 6 6 6 7 6 7 7 8 9 9 9 8 8 9 9 9 9 9 9 9 9 8 8 7 8 8 8 7 7 7 7 7 7 6 7 7 7 7 8 8 8 8 7 7
2 3 3 5 6 6 6 6 7 7 7 7 8 9 9 9 8 9 9 9 9 9 9 9 10 10 9 8 8 8 9 8 8 8 7 7 6 7 7 7 8 8 8 8 9 9 8 8 7
4 4 3 5 6 6 6 7 7 8 8 9 9 9 9 9 9 9 10 10 10 9 9 10 10 10 10 10 10 10 10 9 9 8 8 7 7 7 7 8 8 8 9 9 9 9 9 8 8
5 5 4 6 5 7 8 7 8 7 8 9 9 9 10 10 9 9 9 10 10 10 10 10 11 10 11 11 11 10 10 10 9 9 8 8 8 7 8 8 8 8 9 9 10 9 9 9 9
5 7 7 8 7 7 8 9 8 8 9 10 10 10 10 11 10 10 10 10 11 11 11 11 11 11 11 12 11 11 11 10 10 10 9 9 9 9 8 9 9 10 10 10 10 10 10 10 10
8 9 9 9 8 8 10 11 9 10 9 10 11 11 11 12 12 11 11 11 11 11 11 11 11 12 12 12 12 12 11 11 11 10 10 10 10 10 10 10 11 11 11 11 11 11 11 11 10
10 10 9 8 9 9 10 13 13 11 11 10 11 12 12 13 13 13 12 12 12 12 12 12 13 13 13 13 14 13 12 12 12 11 11 11 10 10 11 12 12 13 13 13 13 13 12 12 12
11 11 10 8 11 13 11 12 13 13 13 12 13 14 14 14 14 14 13 13 12 12 12 12 13 14 14 14 14 14 13 13 13 13 12 11 11 11 12 13 13 14 14 14 14 14 14 13 13
11 11 10 10 12 13 12 13 14 14 13 14 16 16 16 16 16 15 14 14 14 14 14 14 14 14 14 14 14 14 14 15 15 14 14 12 12 13 13 13 14 14 15 15 15 15 15 14 15
12 12 13 13 13 12 12 13 15 16 16 16 17 17 17 18 17 16 16 16 16 15 15 16 15 15 15 15 15 15 16 15 15 14 13 13 13 13 14 14 15 16 16 15 15 16 16 16 16
14 13 14 16 14 14 14 15 15 17 17 18 18 18 18 18 17 17 17 17 17 16 16 16 16 16 16 16 16 16 16 16 16 15 14 14 14 14 15 16 17 17 17 17 17 17 17 17 17
16 15 15 17 17 17 14 15 17 18 18 17 19 20 20 20 20 19 18 18 17 17 17 17 17 18 18 18 18 17 17 17 17 16 16 15 15 16 16 17 18 18 18 18 18 18 18 18 18
18 16 16 16 17 18 16 16 20 19 17 19 21 21 22 21 21 20 20 19 19 19 18 19 18 18 18 18 18 18 18 18 18 17 17 17 17 17 17 17 18 18 19 19 19 19 19 20 20
18 17 17 18 18 18 17 18 19 18 18 18 21 22 22 22 21 21 21 20 20 20 20 19 19 19 19 19 19 18 18 18 19 19 18 18 19 19 19 19 19 19 19 19 19 20 20 21 21
21 20 19 20 20 18 18 19 18 19 20 19 21 22 22 22 22 22 21 21 21 22 22 22 21 21 21 21 21 20 19 20 20 20 20 20 20 20 20 20 19 19 20 20 20 21 21 22 22
Wind_Direction
80 80 79 76 60 56 59 61 58 63 72 80 90 88 85 76 62 57 53 45 39 38 34 45 51 61 65 85 105 114 123 142 151 157 154 154 153 147 142 141 141 150 166 176 178 179 178 185 187
78 78 75 70 59 47 54 61 56 52 59 75 87 85 76 67 59 61 58 46 43 42 46 48 58 66 67 83 93 95 111 129 136 146 144 144 150 150 150 146 134 140 155 172 178 179 179 181 185
81 78 72 64 55 47 50 55 50 47 54 59 69 72 70 59 53 56 56 43 44 45 48 49 58 62 66 74 79 86 94 107 114 135 139 138 144 149 150 147 137 133 144 155 168 170 167 173 178
83 75 67 63 64 57 52 50 49 41 39 44 47 50 59 50 48 46 48 45 44 46 51 52 56 57 60 67 73 80 86 96 103 114 126 128 131 136 136 138 140 135 136 154 173 176 177 188 193
84 73 63 54 55 63 61 54 41 41 45 45 53 48 54 53 47 39 34 38 37 39 53 55 51 54 58 63 72 80 79 91 106 109 114 121 119 119 122 128 140 151 156 171 177 189 195 205 213
71 68 54 41 43 48 47 51 40 43 45 49 60 54 36 49 40 31 27 25 30 36 53 53 54 57 60 59 59 54 49 77 109 104 112 112 107 102 100 100 124 153 174 185 179 187 206 214 228
72 71 54 39 38 40 45 55 51 37 29 41 40 40 28 27 21 19 22 22 24 35 39 51 55 53 60 63 54 41 36 61 94 102 102 96 89 90 96 73 61 103 154 187 193 204 209 216 227
74 72 58 44 48 42 46 53 52 46 33 39 39 33 24 20 12 15 26 26 24 26 33 41 44 40 44 42 47 48 41 51 53 52 96 102 88 80 62 24 26 48 54 236 209 206 213 218 230
72 69 63 43 50 42 51 53 51 56 45 41 36 31 28 19 17 19 25 29 27 30 33 34 32 31 28 30 40 38 32 43 42 36 63 82 72 31 5 30 43 33 9 314 249 227 231 236 244
77 65 57 50 49 40 45 47 43 40 41 40 29 25 28 26 29 28 29 29 27 21 22 29 30 33 31 32 32 31 30 31 29 22 22 16 23 16 12 29 26 12 2 335 288 261 250 248 247
73 60 57 52 53 45 40 43 40 32 35 40 37 32 35 31 32 30 26 27 30 23 17 20 23 27 27 27 20 17 15 14 15 11 1 348 346 350 350 3 7 359 354 338 300 282 263 262 260
74 68 57 46 44 47 41 39 40 35 35 36 33 30 29 27 27 27 26 26 26 24 20 16 13 6 7 11 7 5 1 358 360 357 345 335 331 327 330 346 345 339 336 335 319 300 292 288 274
79 57 52 42 39 45 44 38 35 30 31 33 30 27 25 23 24 26 22 22 20 19 16 12 5 358 355 357 359 0 354 350 347 342 332 327 326 330 326 328 332 332 330 329 329 311 300 297 287
91 62 29 28 31 31 31 26 33 28 23 22 21 21 22 19 19 19 17 14 12 10 8 5 2 354 347 344 350 350 346 339 335 333 329 321 318 316 313 318 319 322 322 320 317 314 310 303 293
100 44 12 12 17 19 21 15 12 20 19 13 12 14 15 13 10 11 10 7 6 3 0 359 357 353 345 339 340 344 344 338 333 325 322 316 309 308 308 311 311 312 312 313 313 313 311 308 296
85 30 357 3 6 4 12 1 357 1 11 7 4 5 5 6 8 6 4 2 359 357 354 351 349 348 345 343 341 338 336 334 330 325 322 316 306 303 307 313 312 309 308 309 311 309 310 308 300
32 325 330 336 342 346 350 339 350 351 353 352 353 355 355 356 357 355 354 354 353 348 346 346 343 341 339 336 333 330 328 329 329 321 321 320 314 308 308 313 315 314 312 311 309 307 308 305 298
264 266 285 303 318 320 324 318 328 340 347 345 345 346 348 352 349 347 346 346 346 343 339 339 336 335 334 328 323 323 324 326 326 318 314 314 312 311 309 310 312 312 314 313 310 310 312 309 301
266 279 279 279 295 304 308 313 316 327 339 337 336 339 344 346 346 342 341 340 340 339 335 333 335 333 332 329 323 318 320 322 321 315 312 313 310 310 307 308 310 312 314 314 314 315 312 308 303
251 269 272 277 285 295 294 294 298 301 321 325 327 332 340 340 342 345 342 339 337 336 331 326 327 328 326 325 325 319 316 317 316 314 311 309 308 308 308 307 307 307 309 312 313 312 309 304 300
254 262 264 267 276 284 289 296 290 299 310 317 322 325 330 334 334 334 331 329 330 330 328 324 323 323 323 322 320 317 315 314 312 308 307 303 300 300 303 306 306 304 304 306 306 307 306 305 301
260 259 260 266 273 279 282 286 289 297 298 300 317 322 322 326 329 328 325 322 323 324 324 322 320 320 319 319 319 315 313 309 307 303 301 301 300 297 298 302 303 303 302 301 300 300 301 301 299
259 260 257 260 267 270 273 278 287 291 293 297 311 314 314 318 321 323 323 317 317 318 318 317 319 317 317 316 316 313 309 307 305 301 299 299 299 301 300 299 300 302 303 301 299 297 297 297 297
259 264 262 265 266 266 271 272 277 282 287 294 303 308 309 313 315 316 318 314 313 313 313 313 315 315 314 315 313 311 309 307 305 301 297 297 300 301 302 302 301 304 305 303 299 298 295 294 294
260 267 274 272 271 274 272 266 271 275 280 287 291 297 304 308 310 313 311 310 310 310 310 308 310 310 310 310 309 309 308 307 305 300 296 298 300 301 303 301 300 301 304 304 301 298 295 294 292
258 262 270 273 272 270 271 272 274 276 278 280 285 292 296 300 303 307 307 310 308 307 308 305 305 306 306 307 307 306 306 305 303 299 296 295 295 297 299 300 298 298 299 300 300 300 296 294 292
254 253 261 269 270 272 271 273 274 276 275 281 287 292 296 300 304 303 303 305 307 304 304 304 302 302 302 303 304 304 303 304 300 296 295 293 294 295 296 297 298 298 298 297 299 298 298 295 293
254 254 259 265 269 272 272 273 273 278 280 288 289 289 290 295 298 298 299 300 303 302 302 302 301 302 302 301 302 301 300 301 300 296 294 291 290 291 294 295 295 296 296 296 297 297 297 295 293
255 253 251 261 264 272 277 274 273 280 280 284 287 288 287 289 293 295 295 297 301 302 301 302 301 301 301 300 298 298 299 299 298 297 294 291 289 290 291 292 294 295 295 294 295 296 295 294 294
248 251 256 261 264 268 274 276 277 284 283 279 282 286 289 292 293 293 293 297 299 300 300 301 302 299 298 298 297 297 297 298 299 296 294 293 291 289 289 290 291 293 293 294 294 294 294 294 294
Height
5884 5884 5884 5884 5884 5884 5884 5884 5883 5883 5882 5882 5881 5881 5880 5880 5881 5882 5879 5877 5876 5876 5875 5874 5873 5872 5871 5871 5869 5868 5866 5866 5867 5870 5872 5874 5875 5876 5876 5877 5877 5878 5878 5880 5881 5881 5882 5883 5883
5887 5886 5886 5886 5886 5886 5886 5885 5884 5884 5884 5883 5882 5882 5881 5881 5881 5880 5879 5878 5877 5876 5876 5875 5874 5873 5872 5871 5871 5870 5869 5869 5870 5872 5873 5874 5875 5876 5877 5877 5878 5878 5879 5880 5881 5881 5882 5883 5883
5888 5888 5888 5887 5888 5888 5888 5887 5886 5885 5885 5884 5884 5884 5883 5883 5882 5881 5880 5880 5879 5878 5877 5877 5876 5875 5874 5874 5873 5873 5873 5872 5873 5874 5874 5875 5876 5877 5878 5878 5878 5879 5879 5880 5880 5881 5882 5883 5883
5890 5889 5889 5891 5890 5890 5889 5889 5887 5887 5886 5885 5885 5885 5884 5884 5883 5882 5882 5881 5880 5880 5879 5878 5878 5877 5877 5876 5876 5876 5875 5875 5875 5875 5876 5876 5877 5878 5878 5879 5879 5879 5880 5880 5881 5881 5882 5883 5883
5890 5890 5891 5891 5891 5891 5890 5890 5889 5888 5887 5886 5886 5886 5885 5885 5884 5884 5883 5882 5882 5881 5880 5880 5879 5879 5879 5878 5878 5878 5877 5877 5877 5877 5877 5877 5878 5878 5879 5879 5879 5880 5880 5880 5881 5882 5882 5883 5883
5892 5893 5894 5893 5893 5893 5892 5891 5891 5889 5888 5888 5887 5887 5886 5886 5886 5885 5884 5883 5883 5882 5882 5881 5881 5880 5880 5880 5879 5879 5879 5879 5879 5879 5879 5879 5879 5879 5879 5880 5880 5880 5880 5881 5881 5882 5882 5883 5883
5895 5896 5897 5896 5895 5894 5894 5892 5892 5891 5890 5890 5889 5889 5888 5887 5887 5886 5885 5884 5884 5883 5883 5882 5882 5882 5881 5881 5880 5880 5880 5879 5880 5879 5879 5880 5880 5880 5880 5880 5880 5880 5880 5881 5881 5882 5882 5883 5883
5897 5898 5898 5898 5897 5896 5895 5894 5893 5892 5891 5891 5891 5890 5890 5889 5888 5887 5886 5885 5884 5884 5884 5883 5883 5883 5882 5882 5881 5881 5881 5880 5880 5880 5880 5880 5880 5880 5880 5880 5880 5880 5880 5880 5881 5881 5882 5882 5882
5899 5901 5900 5900 5899 5898 5897 5896 5895 5893 5893 5893 5893 5892 5891 5890 5889 5888 5887 5886 5885 5885 5885 5884 5884 5883 5882 5882 5882 5882 5881 5881 5881 5880 5880 5881 5881 5881 5881 5880 5880 5880 5880 5880 5880 5881 5881 5881 5882
5903 5903 5902 5902 5901 5900 5899 5898 5896 5895 5894 5894 5894 5893 5893 5892 5891 5890 5889 5888 5887 5886 5886 5885 5885 5884 5884 5883 5883 5882 5882 5881 5881 5881 5881 5881 5881 5881 5881 5880 5880 5880 5880 5880 5880 5880 5880 5881 5881
5905 5905 5904 5903 5903 5902 5901 5900 5898 5896 5896 5896 5896 5895 5894 5893 5892 5891 5890 5889 5889 5888 5887 5886 5886 5885 5885 5884 5884 5883 5883 5882 5882 5881 5881 5881 5881 5881 5881 5881 5881 5881 5880 5880 5880 5880 5880 5880 5881
5907 5906 5906 5905 5904 5904 5903 5902 5901 5899 5899 5898 5897 5896 5896 5895 5894 5893 5892 5891 5890 5889 5888 5888 5887 5886 5886 5885 5885 5884 5883 5883 5882 5882 5881 5881 5881 5881 5881 5881 5881 5881 5880 5880 5879 5879 5879 5879 5880
5908 5908 5907 5907 5906 5905 5905 5904 5902 5901 5900 5899 5899 5898 5897 5896 5895 5894 5893 5892 5891 5890 5890 5889 5888 5887 5886 5886 5885 5884 5884 5883 5883 5882 5882 5881 5881 5881 5881 5881 5880 5880 5880 5880 5879 5879 5879 5878 5879
5908 5908 5908 5907 5907 5906 5906 5905 5904 5903 5902 5901 5900 5899 5898 5897 5896 5895 5894 5893 5892 5891 5890 5889 5888 5887 5887 5886 5885 5884 5884 5883 5883 5882 5881 5881 5881 5881 5881 5881 5880 5880 5879 5879 5879 5878 5878 5878 5878
5908 5909 5909 5909 5908 5908 5907 5906 5905 5904 5903 5902 5901 5900 5899 5898 5897 5896 5895 5894 5893 5892 5891 5890 5889 5888 5887 5886 5885 5884 5883 5883 5883 5882 5881 5881 5880 5880 5880 5880 5880 5879 5879 5878 5878 5877 5877 5876 5876
5908 5910 5910 5910 5910 5909 5909 5908 5906 5905 5904 5903 5902 5901 5900 5899 5898 5896 5895 5894 5893 5892 5891 5890 5889 5888 5887 5886 5885 5884 5884 5883 5882 5881 5881 5880 5879 5879 5879 5879 5879 5879 5878 5878 5877 5876 5876 5875 5875
5910 5911 5911 5911 5910 5910 5909 5908 5907 5906 5905 5904 5903 5901 5900 5899 5898 5897 5895 5894 5894 5892 5891 5890 5889 5888 5887 5886 5885 5884 5883 5882 5881 5880 5880 5879 5879 5878 5878 5878 5878 5877 5877 5877 5876 5875 5875 5874 5874
5911 5912 5912 5912 5911 5910 5909 5908 5907 5906 5905 5904 5903 5902 5900 5899 5898 5897 5895 5894 5893 5892 5891 5890 5889 5888 5886 5885 5884 5883 5883 5882 5880 5879 5879 5878 5878 5878 5877 5877 5877 5876 5876 5875 5875 5874 5874 5873 5873
5911 5911 5911 5912 5911 5910 5909 5909 5907 5906 5905 5904 5903 5902 5900 5899 5898 5897 5895 5894 5893 5892 5891 5890 5888 5887 5886 5885 5884 5883 5882 5881 5879 5879 5878 5877 5877 5877 5876 5876 5876 5875 5875 5874 5873 5873 5872 5872 5871
5910 5911 5911 5911 5910 5910 5909 5908 5907 5905 5905 5904 5902 5901 5900 5898 5897 5896 5895 5894 5893 5891 5890 5889 5888 5886 5885 5884 5882 5881 5880 5879 5878 5877 5877 5876 5876 5876 5875 5875 5874 5874 5873 5873 5872 5871 5871 5870 5870
5909 5910 5910 5910 5910 5909 5908 5907 5905 5904 5904 5903 5901 5900 5899 5898 5897 5896 5894 5893 5892 5891 5889 5888 5886 5885 5883 5882 5881 5880 5879 5878 5877 5876 5875 5875 5874 5874 5874 5873 5873 5872 5872 5871 5870 5870 5869 5868 5868
5908 5909 5908 5908 5908 5908 5908 5906 5904 5903 5902 5901 5901 5899 5898 5897 5896 5895 5893 5892 5891 5889 5888 5887 5885 5884 5882 5880 5879 5878 5877 5876 5875 5874 5873 5873 5872 5872 5872 5872 5871 5870 5870 5869 5868 5867 5867 5866 5866
5906 5906 5906 5906 5906 5906 5906 5905 5903 5901 5899 5899 5899 5897 5897 5895 5894 5893 5892 5890 5889 5888 5886 5885 5884 5882 5880 5878 5877 5875 5874 5873 5873 5872 5871 5871 5870 5870 5870 5869 5869 5868 5867 5866 5866 5865 5864 5864 5863
5903 5904 5904 5904 5903 5904 5904 5903 5901 5899 5898 5897 5897 5896 5894 5893 5892 5891 5890 5888 5887 5886 5884 5883 5882 5880 5878 5877 5875 5873 5872 5871 5870 5869 5869 5868 5868 5868 5867 5867 5866 5865 5864 5864 5863 5862 5861 5860 5860
5901 5902 5902 5902 5901 5902 5902 5900 5900 5897 5896 5895 5894 5894 5893 5891 5890 5888 5887 5886 5884 5883 5882 5880 5879 5878 5876 5875 5873 5871 5870 5869 5867 5867 5866 5866 5866 5865 5865 5864 5863 5862 5861 5860 5859 5858 5857 5857 5856
5899 5900 5901 5900 5899 5899 5898 5896 5896 5894 5893 5893 5891 5891 5890 5888 5885 5885 5884 5882 5881 5879 5879 5877 5876 5875 5873 5872 5871 5869 5868 5866 5865 5864 5863 5863 5863 5862 5861 5860 5859 5858 5858 5857 5856 5855 5854 5853 5852
5895 5896 5898 5897 5896 5895 5895 5893 5891 5891 5890 5889 5888 5887 5886 5885 5884 5882 5881 5880 5879 5877 5876 5875 5873 5872 5870 5869 5868 5866 5865 5864 5862 5861 5860 5859 5859 5858 5858 5857 5856 5854 5853 5852 5852 5851 5850 5849 5848
5891 5892 5894 5893 5892 5891 5891 5890 5888 5886 5885 5885 5885 5883 5882 5881 5880 5879 5877 5876 5875 5874 5873 5871 5870 5869 5867 5866 5864 5863 5862 5860 5859 5858 5857 5856 5855 5854 5853 5852 5851 5850 5849 5848 5847 5846 5845 5845 5843
5887 5888 5888 5889 5888 5889 5888 5888 5883 5882 5881 5881 5881 5879 5879 5877 5876 5875 5874 5872 5871 5870 5869 5868 5866 5865 5863 5862 5861 5859 5858 5857 5855 5854 5853 5852 5851 5850 5849 5848 5847 5846 5844 5843 5842 5841 5841 5839 5838
5883 5883 5885 5885 5884 5884 5884 5884 5880 5879 5878 5876 5876 5875 5874 5874 5873 5871 5869 5868 5867 5865 5864 5863 5862 5860 5859 5857 5856 5855 5853 5852 5851 5850 5848 5847 5846 5845 5844 5843 5842 5841 5840 5839 5837 5836 5835 5834 5833